sat.trackr.live / text

‹ back to catalog

LEMUR-2-SEJONG-3

NORAD 68482 · 2026-067BU

PAYLOAD ACTIVE UNKNOWN

§ Identity

Operator
Country
GER
Launch date
2026-03-30
Launch site
AFWTR
Launch vehicle
Mass (kg)
RCS (m²)

External: N2YO · Heavens-Above · Gunter

§ Orbital elements

Epoch: 2026-05-25T03:24:51.971616Z

Period
96.47 min
Inclination
97.7555°
Eccentricity
0.0003073
Mean motion
14.92756376 rev/d
Perigee alt
587.2 km
Apogee alt
591.5 km
Semi-major
6,967.5 km
B*
2.7351e-4
RAAN
103.8146°
Arg perigee
0.6217°
Mean anomaly
359.5005°
Rev number
829

§ Raw data

LEMUR-2-SEJONG-31 68482U 26067BU  26145.14226819  .00002770  00000+0  27351-3 0  99962 68482  97.7555 103.8146 0003073   0.6217 359.5005 14.92756376  8296

JSON: /api/v1/satellites/68482 · /tle

For live sub-satellite position, see the globe view (requires WebGL).

§ Visibility from observer

Set your observer location to see the next 7 days of passes ≥ 10°. The values pass through the URL so the page stays shareable.

No JS? Fill the form by hand. The geolocation button needs JavaScript.